Regional Weather Roundup
Issued by NWS

Home | Current Version | Previous Version | Text Only | Print | Product List | Glossary On
Versions: 1 2 3 4 5 6 7 8 9 10 11 12 13 14 15 16 17 18 19 20 21 22 23 24 25 26 27 28 29 30 31 32 33 34 35 36 37 38 39 40 41 42 43 44 45 46 47 48 49 50
401
ASUS43 KMPX 240810
RWRMN
WEATHER ROUNDUP FOR MINNESOTA
NATIONAL WEATHER SERVICE TWIN CITIES/CHANHASSEN MN
200 AM CST WED JAN 24 2018


NOTE: "FAIR" INDICATES FEW OR NO CLOUDS BELOW 12,000 FEET WITH NO
SIGNIFICANT WEATHER AND/OR OBSTRUCTIONS TO VISIBILITY. N/A MEANS
CURRENT SKY AND/OR WEATHER CONDITIONS ARE NOT AVAILABLE.

MNZ060>063-068>070-240900-
   Twin Cities Metro

CITY           SKY/WX    TMP DP  RH WIND       PRES   REMARKS
TWIN CITIES    CLOUDY    15  11  83 CALM      30.20S
ST PAUL        FAIR      14  11  87 CALM      30.22S
CRYSTAL        FAIR      11   6  81 CALM      30.19R
BLAINE         FAIR      10   9  92 CALM      30.19R
LAKEVILLE        N/A      3   3 100 CALM      30.20R
EDEN PRAIRIE   FAIR      16  11  80 S3        30.18S
SOUTH ST PAUL  FAIR      11   9  89 CALM      30.21R
LAKE ELMO      FAIR       7   3  85 CALM      30.21R
$$
MNZ001>005-007-008-013>017-022>024-027-028-240900-
   Northwest Minnesota

CITY           SKY/WX    TMP DP  RH WIND       PRES   REMARKS
BEMIDJI        CLOUDY    19  18  95 SW3       30.12S
HALLOCK        CLOUDY    23  19  86 S6        30.10F WCI  16
ROSEAU         FLURRIES  21  16  79 SW5       30.10S WCI  15
WARROAD        CLOUDY    19  16  86 CALM      30.10F
THIEF RVR FALL CLOUDY    20  18  92 S7        30.13F WCI  11
CROOKSTON      CLOUDY    21  19  93 SW7       30.15S WCI  13
FOSSTON        CLOUDY    18  16  93 CALM      30.13F
DETROIT LAKES  CLOUDY    21  19  93 CALM      30.15F
MOORHEAD       CLOUDY    23  18  80 W3        30.18S
PARK RAPIDS    CLOUDY    20  16  84 W3        30.12F
MAHNOMEN       CLOUDY    21  18  88 NW3       30.14S
$$
MNZ006-009>011-018-025>026-240900-
   North Central Minnesota

CITY           SKY/WX    TMP DP  RH WIND       PRES   REMARKS
BAUDETTE       FLURRIES  15  13  91 SE3       30.10S
FLAG ISLAND    CLOUDY    16  10  79 SE7       30.09F WCI   6
INTL FALLS     CLOUDY    11   1  64 SE3       30.13S
WASKISH        CLOUDY    18  16  93 CALM      30.12S
BIG FORK       CLOUDY    12   7  79 CALM      30.12S
LONGVILLE      CLOUDY    12   9  85 CALM      30.15R
GRAND RAPIDS   CLOUDY     7   3  84 CALM      30.15S
CRANE LAKE     CLOUDY     7   1  78 CALM      30.17S
ORR            CLOUDY     9  -2  61 CALM      30.11R
COOK           CLOUDY     7   0  72 CALM      30.13S
WALKER         CLOUDY    16  13  90 CALM      30.13S
$$
MNZ012-019>021-037-240900-
   Northeast Minnesota

CITY           SKY/WX    TMP DP  RH WIND       PRES   REMARKS
DULUTH         FAIR       4  -2  76 CALM      30.13S
HIBBING        CLOUDY     6   2  83 NW3       30.14R
EVELETH        CLOUDY     2  -3  79 CALM      30.14R
DULUTH HARBOR  FAIR      10   5  79 S5        30.20S WCI   2
TWO HARBORS    FAIR      12   3  67 N3        30.14S
SILVER BAY     CLOUDY    16   5  62 N3        30.14S
GRAND MARAIS     N/A     11  -6  46 NE6       30.24R WCI   1
G MARAIS ARPRT CLOUDY     3 -11  51 CALM      30.12R
$$
MNZ029>031-032-039>041-046>048-054>057-064-240900-
   West Central Minnesota

CITY           SKY/WX    TMP DP  RH WIND       PRES   REMARKS
FERGUS FALLS   CLOUDY    19  18  93 NW7       30.18S WCI  10
WHEATON        CLOUDY    19  18  93 NW9       30.22F WCI   9
MORRIS         CLOUDY    21  19  93 NW7       30.18S FOG     WCI  13
ALEXANDRIA     CLOUDY   N/A N/A N/A MISG      30.16R
ELBOW LAKE     CLOUDY    21  19  95 W7        30.18F WCI  12
WADENA         CLOUDY    19  19 100 W5        30.14S FOG     WCI  13
GLENWOOD       FAIR      23  21  93 NW7       30.17S WCI  15
APPLETON       CLOUDY    27  21  80 NW9       30.20S WCI  17
BENSON         CLOUDY    25  21  86 NW6       30.20S WCI  18
MADISON        CLOUDY    27  21  80 NW5       30.21S WCI  21
WILLMAR        CLOUDY    25  21  86 CALM      30.21S
$$
MNZ033>034-036-042>043-049>051-058-059-240900-
   Central Minnesota

CITY           SKY/WX    TMP DP  RH WIND       PRES   REMARKS
ST CLOUD       CLOUDY    16  13  88 CALM      30.18S
SAUK CENTRE      N/A     21  20  94 NW5       30.18R FOG     WCI  15
PAYNESVILLE    CLOUDY    23  22  95 NW6       30.19R WCI  16
AITKIN         CLOUDY     9   7  92 CALM      30.15R
PINE RIVER     CLOUDY    16  12  86 CALM      30.18R
BRAINERD       CLOUDY    16  14  92 W3        30.16S FOG
STAPLES        CLOUDY    19  18  93 W3        30.15S FOG
LONG PRAIRIE   CLOUDY    21  19  93 CALM      30.17R FOG
LITTLE FALLS   CLOUDY    19  12  73 CALM      30.18R
LITCHFIELD     CLOUDY    23  21  93 NW7       30.19S WCI  15
BUFFALO        FAIR      10   7  87 CALM      30.20S
MAPLE LAKE     MOCLDY    16  15  95 MISG      30.20R
HUTCHINSON     CLOUDY    21  19  93 CALM      30.20S
$$
MNZ037-044-045-052-053-240900-
   East Central Minnesota

CITY           SKY/WX    TMP DP  RH WIND       PRES   REMARKS
PRINCETON      FAIR       7   5  92 CALM      30.18R
MORA           FAIR       7   3  85 CALM      30.19S
CAMBRIDGE        N/A     10   3  72 CALM      30.19S
RUSH CITY      FAIR       9   6  89 CALM      30.19S
MOOSE LAKE     MOCLDY     1  -2  85 CALM      30.15R
HINCKLEY       FAIR       5   3  92 CALM      30.18R
CLOQUET        FAIR       0  -6  78 CALM      30.14R
MCGREGOR       FAIR       3   1  92 CALM      30.15R
$$
MNZ071>073-080-081-089-090-097-098-240900-
   Southwest Minnesota

CITY           SKY/WX    TMP DP  RH WIND       PRES   REMARKS
MONTEVIDEO     CLOUDY    25  21  86 CALM      30.20S
GRANITE FALLS  CLOUDY    27  23  85 CALM      30.22S
CANBY          CLOUDY    24  22  93 NW3       30.21S
MARSHALL       CLOUDY    24  21  88 W6        30.21R WCI  17
REDWOOD FALLS  CLOUDY    24  21  88 NW8       30.20S WCI  15
OLIVIA         CLOUDY    27  21  80 CALM      30.19S
PIPESTONE      CLOUDY    19  19 100 NW5       30.18R WCI  13
WINDOM         CLOUDY    23  10  58 NW3       30.19S HAZE
WORTHINGTON    CLOUDY    24  22  91 N10       30.19R WCI  14
JACKSON        CLOUDY    23  21  93 NW8       30.20R WCI  14
TRACY          CLOUDY    26  24  93 NW6       30.20R WCI  19
SLAYTON        CLOUDY    22  21  96 N6        30.19S FOG     WCI  15
$$
MNZ065>067-074>077-082>085-091>093-240900-
   South Central Minnesota

CITY           SKY/WX    TMP DP  RH WIND       PRES   REMARKS
MANKATO        CLOUDY    17  15  92 W5        30.22R WCI  10
NEW ULM        CLOUDY    21  18  86 CALM      30.21R
ST JAMES       CLOUDY    23  21  93 CALM      30.22R
FAIRMONT       CLOUDY    22  20  92 W6        30.21S WCI  14
FARIBAULT      FAIR       7   5  92 CALM      30.20R
OWATONNA       FAIR      10   7  85 CALM      30.19S FOG
WASECA         FOG       10   7  85 CALM      30.21S VSB 1/4
ALBERT LEA     FAIR      18  16  93 W5        30.19R WCI  11
$$
MNZ078>079-086>088-094>096-240900-
   Southeast Minnesota

CITY           SKY/WX    TMP DP  RH WIND       PRES   REMARKS
ROCHESTER      FAIR      13  11  92 W7        30.18R WCI   3
RED WING       FAIR       9   3  78 CALM      30.21S
STANTON        FAIR       8   4  87 CALM      30.19S
DODGE CENTER   LGT SNOW   9   7  92 CALM      30.18R VSB 3/4
WINONA         FAIR      14  12  92 NW3       30.22R
AUSTIN         FAIR      18  16  93 NW5       30.19R WCI  11
PRESTON        MOCLDY    15  13  90 NW5       30.19R WCI   8
$$
ABBREVIATIONS USED IN REMARKS
   TC - TEMPERATURES IN CELSIUS
  WCI - WIND CHILL INDEX
   HX - HEAT INDEX
  VSB - VISIBILITY
$$




USA.gov is the U.S. government's official web portal to all federal, state and local government web resources and services.